sat.trackr.live / text

‹ back to catalog

2025-274D

NORAD 66653 · 2025-274D

PAYLOAD ACTIVE UNKNOWN

§ Identity

Operator
Country
SKOR
Launch date
2025-11-26
Launch site
NSC
Launch vehicle
Mass (kg)
RCS (m²)

External: N2YO · Heavens-Above · Gunter

§ Orbital elements

Epoch: 2026-05-24T17:58:17.340384Z

Period
96.47 min
Inclination
97.7483°
Eccentricity
0.0014204
Mean motion
14.92676757 rev/d
Perigee alt
579.7 km
Apogee alt
599.5 km
Semi-major
6,967.7 km
B*
1.5201e-4
RAAN
74.2056°
Arg perigee
75.1984°
Mean anomaly
285.0808°
Rev number
2,671

§ Raw data

2025-274D1 66653U 25274D   26144.74881181  .00001513  00000+0  15201-3 0  99922 66653  97.7483  74.2056 0014204  75.1984 285.0808 14.92676757 26716

JSON: /api/v1/satellites/66653 · /tle

For live sub-satellite position, see the globe view (requires WebGL).

§ Visibility from observer

Set your observer location to see the next 7 days of passes ≥ 10°. The values pass through the URL so the page stays shareable.

No JS? Fill the form by hand. The geolocation button needs JavaScript.

§ Radio — SatNOGS DB

ModeDescriptionDownlinkUplink
QPSK Mode S - QPSK 1 Msps - Transmitter 2.417 GHz
GFSK Mode U - GFSK9k6 - Transmitter 437.665 MHz

2 transmitters · refreshed weekly from db.satnogs.org